[[{"header":{"parameterUnit":"m.s-1","parameterCategory":1,"la1":30.2991,"la2":30.254,"lo1":-89.0895,"lo2":-89.0444,"dy":0.0017,"dx":0.0017,"nx":28,"ny":28,"refTime":"2023-08-02T21:00:00:Z","depth":0,"parameterNumber":2,"parameterNumberName":"U-component_of_WINDS"},"data":[0,0,0,0,0,0,0,0,0,0,0,0,0,0,0,0,0,0,0,0,0,0,0,0,0,0,0,0,0,0,0,0,0,0,0,0,0,0,0,0,0,0,0,0,0,0,0,0,0,0,0,0,0,0,0,0,0,0,0.6803,0.6804,0,0.6899,0.69,0.6901,0.6941,0.6941,0.6941,0.6941,0.7037,0.704,0.7043,0,0,0,0,0,0,0,0,0,0,0,0,0,0.6651,0.6654,0.6803,0.6804,0.6805,0.6899,0.69,0.6902,0.6941,0.6941,0.6941,0.694,0.7036,0.704,0.7043,0,0,0,0,0,0,0,0,0,0,0,0,0,0.6729,0.6655,0.6803,0.6837,0.684,0.6899,0.69,0.6902,0.6941,0.6941,0.6941,0.694,0.7035,0.7039,0.7043,0.7075,0,0,0.7056,0.7058,0,0,0,0,0,0,0,0,0.6725,0.6735,0.683,0.6834,0.6839,0.6908,0.6882,0.696,0.6941,0.6903,0.6941,0.694,0.6994,0.7002,0.702,0.7079,0.7083,0.7056,0.7059,0.7061,0.7062,0,0,0,0,0,0,0,0.6719,0.6731,0.6841,0.6832,0.6837,0.6846,0.6857,0.6897,0.6949,0.6906,0.6909,0.692,0.6997,0.7016,0.7023,0.7085,0.7056,0.706,0.7062,0.7064,0.7173,0.7174,0,0,0,0,0,0,0.6709,0.6726,0.6838,0.6844,0.678,0.6849,0.6861,0.6886,0.6949,0.6958,0.692,0.6922,0.7009,0.7018,0.7027,0.7067,0.7061,0.7065,0.7067,0.7173,0.7173,0.7174,0,0,0,0,0,0,0.6705,0.6718,0.6834,0.6786,0.6801,0.6852,0.688,0.6888,0.6908,0.696,0.6969,0.6931,0.701,0.7021,0.7062,0.7071,0.7066,0.707,0.7172,0.7173,0.7173,0.7148,0,0,0,0,0,0,0.6701,0.6717,0.673,0.6786,0.6804,0.6869,0.688,0.689,0.6915,0.6918,0.6972,0.6981,0.701,0.7056,0.7066,0.7077,0.7073,0.7172,0.7173,0.7173,0.7148,0.7148,0.7147,0,0,0,0,0,0.6695,0.6719,0.673,0.6744,0.6821,0.6869,0.6879,0.6913,0.6916,0.6929,0.6962,0.6979,0.7068,0.706,0.7072,0.7083,0.7171,0.7172,0.7173,0.7149,0.7148,0.7147,0,0,0,0,0,0,0.6662,0.6727,0.674,0.6783,0.682,0.6876,0.6894,0.6912,0.6949,0.695,0.6989,0.7001,0.7039,0.7066,0.7055,0.7117,0.7121,0.7124,0.7098,0.7098,0.7097,0.709,0.7077,0,0,0,0,0,0.6659,0.6694,0.6748,0.6781,0.6799,0.6843,0.6865,0.6888,0.6928,0.6944,0.698,0.7018,0.7054,0.7078,0.7114,0.7152,0.7164,0.7166,0.7165,0.7165,0.7167,0.7189,0.719,0.7177,0.7177,0.7177,0,0,0.6655,0.6695,0.6714,0.6775,0.6807,0.6841,0.6856,0.6891,0.6917,0.6949,0.6991,0.7018,0.7063,0.7103,0.7122,0.7126,0.7173,0.7166,0.7165,0.7168,0.719,0.7191,0.7192,0.7177,0.7177,0.7177,0,0,0.6664,0.6698,0.6728,0.6759,0.6808,0.6837,0.6844,0.6897,0.6916,0.6959,0.6984,0.7014,0.7076,0.7107,0.713,0.715,0.7167,0.7161,0.7158,0.7178,0.7179,0.718,0.7187,0.7189,0.7163,0.7163,0.7163,0,0.6652,0.6705,0.6741,0.6775,0.6801,0.6832,0.6863,0.6891,0.6948,0.6965,0.6968,0.7046,0.7079,0.7126,0.713,0.7149,0.7158,0.7155,0.7176,0.7178,0.7179,0.7186,0.7188,0.7162,0.7162,0.7162,0.7162,0,0.6688,0.6724,0.6743,0.6798,0.6825,0.6857,0.6897,0.6921,0.6941,0.6969,0.7011,0.7051,0.7096,0.7108,0.7128,0.7158,0.7159,0.7169,0.7174,0.7179,0.7186,0.7189,0.716,0.716,0.7161,0.7161,0,0,0.6679,0.6753,0.676,0.6785,0.6839,0.6868,0.69,0.6945,0.6964,0.7002,0.703,0.7081,0.709,0.7117,0.7141,0.7158,0.7171,0.7166,0.7168,0.7165,0.7206,0.7198,0.7201,0.7182,0.7183,0.7183,0.7202,0,0.6696,0.6757,0.679,0.6837,0.687,0.69,0.6928,0.6965,0.6992,0.7023,0.7053,0.7088,0.7098,0.7114,0.7133,0.7165,0.7179,0.7164,0.7208,0.7209,0.7196,0.7204,0.7197,0.7212,0.7205,0.7205,0.7206,0,0.6723,0.6761,0.6812,0.6862,0.6877,0.6903,0.6945,0.6975,0.7016,0.7035,0.7064,0.7087,0.7122,0.7124,0.7172,0.7161,0.7181,0.7199,0.7201,0.7206,0.7208,0.721,0.7218,0.722,0.721,0.721,0.721,0,0.6711,0.6775,0.6814,0.6834,0.6894,0.6911,0.6936,0.6977,0.7002,0.7039,0.7054,0.7095,0.7117,0.7147,0.718,0.7178,0.7224,0.723,0.724,0.7239,0.7249,0.7248,0.726,0.7261,0.7261,0.7261,0.7261,0,0.6726,0.6756,0.6809,0.6833,0.6867,0.6903,0.6936,0.6963,0.6999,0.7028,0.7056,0.7082,0.7124,0.7155,0.718,0.7216,0.7226,0.7241,0.7248,0.7239,0.7237,0.7252,0.7252,0.7262,0.7262,0.7261,0.7261,0,0.6719,0.6756,0.68,0.6853,0.6867,0.6889,0.6934,0.6958,0.6986,0.7022,0.7032,0.7076,0.7114,0.715,0.7201,0.7218,0.7254,0.7262,0.724,0.7244,0.7252,0.7251,0.7275,0.728,0.7277,0.7277,0.7277,0,0.6727,0.675,0.6806,0.6827,0.6853,0.6887,0.6912,0.6949,0.6973,0.7021,0.7039,0.7079,0.7113,0.7172,0.7208,0.7247,0.7256,0.7262,0.7262,0.7252,0.7256,0.7255,0.7257,0.7261,0.7261,0.7261,0.7261,0,0.6735,0.6752,0.6788,0.6829,0.6858,0.6893,0.6928,0.6944,0.6987,0.7013,0.7052,0.7079,0.713,0.717,0.7212,0.7238,0.7256,0.7261,0.7265,0.7257,0.7243,0.725,0.7238,0.726,0.726,0.726,0.726,0.726,0.6736,0.6758,0.6801,0.6839,0.6869,0.6901,0.6926,0.6957,0.6991,0.7036,0.7055,0.7095,0.7135,0.7194,0.7219,0.725,0.7254,0.7261,0.7262,0.7263,0.7262,0.7237,0.7258,0.7258,0.7258,0.7258,0.7258,0,0.6746,0.6775,0.681,0.6858,0.6888,0.6903,0.6943,0.6966,0.7001,0.7037,0.707,0.7115,0.7152,0.7191,0.7231,0.7248,0.7258,0.7258,0.7257,0.7262,0.7256,0.7248,0.7249,0.7249,0.7249,0.7249,0.7249,0.7249,0.6755,0.6793,0.6815,0.6868,0.6896,0.6936,0.6957,0.6986,0.7015,0.7064,0.7096,0.7121,0.7158,0.72,0.7236,0.7246,0.7259,0.7257,0.7269,0.7262,0.7263,0.7263,0.7256,0.7259,0.7259,0.7273,0.7273,0.7273]},{"header":{"parameterUnit":"m.s-1","parameterCategory":1,"la1":30.2991,"la2":30.254,"lo1":-89.0895,"lo2":-89.0444,"dy":0.0017,"dx":0.0017,"nx":28,"ny":28,"refTime":"2023-08-02T21:00:00:Z","depth":0,"parameterNumber":3,"parameterNumberName":"V-component_of_WINDS"},"data":[0,0,0,0,0,0,0,0,0,0,0,0,0,0,0,0,0,0,0,0,0,0,0,0,0,0,0,0,0,0,0,0,0,0,0,0,0,0,0,0,0,0,0,0,0,0,0,0,0,0,0,0,0,0,0,0,0,0,5.1132,5.1131,0,5.109,5.1089,5.1089,5.1018,5.1017,5.1016,5.1014,5.0972,5.0972,5.0972,0,0,0,0,0,0,0,0,0,0,0,0,0,5.1151,5.1151,5.1132,5.1131,5.1131,5.109,5.1089,5.1089,5.1019,5.1017,5.1015,5.1014,5.0972,5.0972,5.0972,0,0,0,0,0,0,0,0,0,0,0,0,0,5.1129,5.1151,5.1132,5.1091,5.1087,5.109,5.1089,5.1089,5.1019,5.1017,5.1015,5.1013,5.0972,5.0972,5.0972,5.1012,0,0,5.0972,5.0972,0,0,0,0,0,0,0,0,5.1131,5.1129,5.1097,5.1093,5.1089,5.1057,5.108,5.1063,5.1019,5.1045,5.1014,5.1012,5.1002,5.0999,5.0996,5.101,5.1008,5.0972,5.0972,5.0972,5.0973,0,0,0,0,0,0,0,5.1132,5.113,5.1115,5.1097,5.1092,5.1074,5.1069,5.1077,5.1035,5.1042,5.1037,5.1033,5.0999,5.0996,5.0994,5.1008,5.0972,5.0972,5.0973,5.0973,5.1052,5.1054,0,0,0,0,0,0,5.114,5.1132,5.1116,5.1114,5.1105,5.1076,5.107,5.1069,5.1034,5.1027,5.1035,5.103,5.0997,5.0994,5.0993,5.1036,5.0972,5.0973,5.0973,5.105,5.1053,5.1055,0,0,0,0,0,0,5.114,5.1139,5.1118,5.1121,5.1117,5.1077,5.1078,5.107,5.1066,5.1029,5.1021,5.1039,5.0995,5.0992,5.1008,5.1034,5.0973,5.0973,5.1048,5.1051,5.1054,5.1125,0,0,0,0,0,0,5.1141,5.114,5.1155,5.1122,5.1117,5.1134,5.1079,5.107,5.1067,5.106,5.1031,5.1024,5.0993,5.1008,5.1008,5.1033,5.0973,5.1045,5.1049,5.1053,5.1121,5.1131,5.1139,0,0,0,0,0,5.1142,5.1177,5.1156,5.1154,5.1135,5.1136,5.1133,5.1097,5.1069,5.1083,5.1059,5.1025,5.1032,5.101,5.1009,5.1035,5.1043,5.1048,5.1052,5.1116,5.1129,5.1139,0,0,0,0,0,0,5.1213,5.1172,5.1148,5.1173,5.1158,5.1124,5.1141,5.1111,5.1104,5.1098,5.1053,5.1048,5.1068,5.1053,5.103,5.1072,5.1032,5.1037,5.1081,5.1092,5.1101,5.1104,5.0973,0,0,0,0,0,5.1232,5.1235,5.1199,5.1225,5.1218,5.1181,5.118,5.1154,5.1137,5.113,5.1107,5.1092,5.1091,5.1091,5.1087,5.1118,5.1111,5.1136,5.1145,5.1153,5.1157,5.1172,5.1182,5.107,5.107,5.107,0,0,5.127,5.1248,5.1253,5.1238,5.1224,5.1229,5.1176,5.1184,5.1187,5.1131,5.1144,5.1127,5.1107,5.1131,5.114,5.1119,5.1187,5.1159,5.1165,5.1165,5.1178,5.1188,5.1198,5.1073,5.1072,5.1072,0,0,5.1342,5.1326,5.1345,5.1331,5.131,5.1285,5.129,5.126,5.1247,5.1259,5.1217,5.122,5.1219,5.1206,5.12,5.1268,5.1235,5.1268,5.1316,5.1331,5.134,5.1347,5.1371,5.138,5.1272,5.1273,5.1273,0,5.1392,5.1397,5.1358,5.1368,5.1363,5.1313,5.1332,5.1321,5.13,5.1298,5.1275,5.1271,5.1255,5.1274,5.129,5.1287,5.1291,5.127,5.1342,5.1349,5.1355,5.1377,5.1386,5.1277,5.1276,5.1276,5.1275,0,5.146,5.1464,5.1482,5.1463,5.146,5.1475,5.1438,5.1439,5.1413,5.1391,5.1404,5.1382,5.1373,5.1376,5.1351,5.1392,5.1379,5.135,5.1308,5.1371,5.139,5.1398,5.1282,5.1281,5.128,5.1279,0,0,5.1574,5.1533,5.1541,5.1531,5.1504,5.1507,5.152,5.1511,5.1513,5.15,5.1509,5.1509,5.1482,5.1474,5.1447,5.146,5.1514,5.1429,5.1428,5.1445,5.1557,5.1579,5.1589,5.1493,5.1495,5.1496,5.1558,0,5.164,5.1658,5.1624,5.165,5.1654,5.1606,5.1617,5.1602,5.1582,5.1582,5.1559,5.1559,5.1523,5.1518,5.1529,5.1506,5.1536,5.1501,5.15,5.1501,5.1506,5.1599,5.1622,5.1682,5.1566,5.1567,5.1568,0,5.1718,5.171,5.1737,5.1708,5.1708,5.1718,5.1707,5.1708,5.169,5.1674,5.1666,5.1635,5.1644,5.1606,5.1618,5.1595,5.1593,5.1581,5.1583,5.158,5.1538,5.1599,5.1701,5.171,5.158,5.1579,5.1578,0,5.1798,5.1793,5.1808,5.1802,5.1769,5.1777,5.1764,5.1744,5.1741,5.1732,5.1729,5.1721,5.1717,5.1711,5.1678,5.1653,5.1694,5.1653,5.1681,5.1682,5.1691,5.1691,5.1793,5.1692,5.1692,5.1691,5.1691,0,5.1874,5.1892,5.1844,5.1853,5.1872,5.1832,5.1852,5.1834,5.1817,5.1822,5.1781,5.1786,5.1742,5.1743,5.1717,5.1731,5.173,5.1717,5.171,5.172,5.1721,5.1717,5.1712,5.1694,5.1693,5.1693,5.1692,0,5.1966,5.1934,5.1948,5.1916,5.1908,5.1924,5.1896,5.1903,5.188,5.1887,5.1886,5.1851,5.1849,5.1816,5.1807,5.179,5.1814,5.1799,5.182,5.1815,5.1844,5.1842,5.1947,5.1958,5.1851,5.1852,5.1853,0,5.2016,5.2029,5.1999,5.1999,5.1988,5.1989,5.1985,5.1947,5.1945,5.1925,5.1935,5.193,5.1924,5.1924,5.1897,5.1891,5.1875,5.1912,5.1874,5.1884,5.1874,5.1874,5.1874,5.192,5.1922,5.1923,5.1924,0,5.2109,5.2092,5.2089,5.208,5.2077,5.2069,5.2057,5.206,5.2018,5.2018,5.2016,5.2011,5.2003,5.1998,5.1987,5.1973,5.1941,5.1936,5.1942,5.1952,5.1963,5.1957,5.1841,5.1934,5.1933,5.1932,5.1931,5.1931,5.218,5.2189,5.2169,5.2167,5.2154,5.2145,5.215,5.2128,5.2125,5.2115,5.2093,5.2094,5.2076,5.2057,5.2045,5.2046,5.2027,5.2036,5.2038,5.204,5.2046,5.1964,5.2044,5.2043,5.2043,5.2043,5.2043,0,5.227,5.2254,5.2253,5.2238,5.2236,5.2207,5.2193,5.2193,5.2195,5.218,5.2176,5.2173,5.2169,5.2142,5.2134,5.2139,5.2125,5.2139,5.2137,5.2134,5.2064,5.2059,5.2151,5.2151,5.2151,5.2151,5.2151,5.2151,5.2316,5.2329,5.2311,5.2318,5.2302,5.2303,5.2298,5.2288,5.2276,5.2276,5.2272,5.2254,5.2234,5.2225,5.2219,5.2211,5.221,5.2229,5.2216,5.215,5.2139,5.213,5.2125,5.2229,5.2229,5.2286,5.2287,5.2287]}]]